Location: Lichtensteig
(47.3376°N, 9.0841°E)
Time: 09:10:04
(UTC+00:00)

FENGYUN 1C DEB - Pass Details

Date: 21 September 2021
Orbit: 837 x 877 km, 98.7° (Epoch: 22 October)

Event Time Altitude Azimuth Distance (km) Brightness Sun altitude
Rises 18:45:54 0° 195° (SSW) 3,447 ? -14.6°
Reaches altitude 10° 18:48:34 10° 206° (SSW) 2,519 ? -15.1°
Maximum altitude 18:53:25 29° 266° (W) 1,541 ? -15.8°
Drops below altitude 10° 18:58:19 10° 326° (NW) 2,542 ? -16.6°
Sets 19:01:03 0° 337° (NNW) 3,485 ? -17.1°
